Weather History for Tomahawk, WI

Change the Weather History Date:

Saturday, December 29, 2012

  Actual Average (KRHI) Record (KRHI)
Temperature  
Mean Temperature 19 °F 14 °F  
Max Temperature 23 °F 22 °F 42 °F (1979)
Min Temperature 15 °F 5 °F -28 °F (1917)
Degree Days  
Heating Degree Days 46 52  
Month to date heating degree days 1389  
Since 1 July heating degree days 3523  
Cooling Degree Days 0 0  
Month to date cooling degree days 0  
Year to date cooling degree days 261  
Moisture  
Dew Point 16 °F    
Average Humidity 86    
Maximum Humidity 93    
Minimum Humidity 74    
Precipitation  
Precipitation 0.00 in 0.04 in 0.36 in (1978)
Month to date precipitation 1.36  
Year to date precipitation 31.32  
Snow  
Snow 0.00 in - 4.00 in (1964)
Month to date snowfall  
Since 1 July snowfall  
Snow Depth -    
Sea Level Pressure  
Sea Level Pressure 29.95 in    
Wind  
Wind Speed 1 mph (West)    
Max Wind Speed 9 mph    
Max Gust Speed -    
Visibility 6 miles    
Events Snow    
T = Trace of Precipitation, MM = Missing Value Source: NWS Daily Summary

Daily Weather History Graph

Daily Weather History Graph

Search for Another Location

Airport:

Trip Planner

Search our weather history database for the weather conditions in past years. The results will help you decide how hot, cold, wet, or windy it might be!

Date:

Astronomy

Dec. 29, 2012 Rise Set
Actual Time 7:39 AM CST 4:24 PM CST
Civil Twilight 7:04 AM CST 4:58 PM CST
Nautical Twilight 6:27 AM CST 5:35 PM CST
Astronomical Twilight 5:51 AM CST 6:11 PM CST
Moon 6:02 PM CST (12/29) 8:07 AM CST (12/29)
Length of Visible Light 9h 53m
Length of Day
8h 45m
Full, 98% of the Moon is Illuminated
Dec 29
Full
Jan 4
Last Quarter
Jan 11
New
Jan 18
First Quarter
Jan 26
Full

Hourly Weather History & Observations

Time (CST) Temp. Windchill Dew Point Humidity Pressure Visibility Wind Dir Wind Speed Gust Speed Precip Events Conditions
12:15 AM 21.2 °F - 19.4 °F 93% 29.90 in 1.8 mi Calm Calm - N/A Snow Light Snow
12:35 AM 21.2 °F - 19.4 °F 93% 29.90 in 1.8 mi Calm Calm - N/A Snow Light Snow
12:55 AM 21.2 °F - 19.4 °F 93% 29.90 in 1.5 mi Calm Calm - N/A Snow Light Snow
1:15 AM 21.2 °F - 19.4 °F 93% 29.90 in 1.5 mi Calm Calm - N/A Snow Light Snow
1:35 AM 21.2 °F - 19.4 °F 93% 29.90 in 1.8 mi Calm Calm - N/A Snow Light Snow
1:55 AM 21.2 °F - 19.4 °F 93% 29.90 in 1.5 mi Calm Calm - N/A Snow Light Snow
2:15 AM 21.2 °F - 17.6 °F 86% 29.91 in 1.5 mi Calm Calm - N/A Snow Light Snow
2:35 AM 21.2 °F - 17.6 °F 86% 29.91 in 2.0 mi Calm Calm - N/A Snow Light Snow
2:55 AM 19.4 °F - 17.6 °F 93% 29.91 in 1.5 mi Calm Calm - N/A Snow Light Snow
3:15 AM 19.4 °F - 17.6 °F 93% 29.91 in 1.5 mi Calm Calm - N/A Snow Light Snow
3:35 AM 19.4 °F - 17.6 °F 93% 29.91 in 1.8 mi Calm Calm - N/A Snow Light Snow
3:55 AM 19.4 °F - 17.6 °F 93% 29.91 in 1.5 mi Calm Calm - N/A Snow Light Snow
4:15 AM 19.4 °F - 17.6 °F 93% 29.91 in 2.0 mi Calm Calm - N/A Snow Light Snow
4:35 AM 19.4 °F - 17.6 °F 93% 29.91 in 2.5 mi Calm Calm - N/A Snow Light Snow
4:55 AM 19.4 °F - 17.6 °F 93% 29.91 in 1.8 mi Calm Calm - N/A Snow Light Snow
5:15 AM 19.4 °F - 17.6 °F 93% 29.91 in 2.0 mi Calm Calm - N/A Snow Light Snow
5:35 AM 19.4 °F - 17.6 °F 93% 29.92 in 3.0 mi Calm Calm - N/A Snow Light Snow
6:15 AM 19.4 °F - 15.8 °F 86% 29.92 in 5.0 mi Calm Calm - N/A Snow Light Snow
6:35 AM 19.4 °F - 15.8 °F 86% 29.92 in 4.0 mi Calm Calm - N/A Snow Light Snow
6:55 AM 19.4 °F - 15.8 °F 86% 29.92 in 4.0 mi Calm Calm - N/A Snow Light Snow
7:15 AM 17.6 °F - 15.8 °F 93% 29.92 in 4.0 mi Calm Calm - N/A Snow Light Snow
7:35 AM 17.6 °F - 15.8 °F 93% 29.93 in 5.0 mi Calm Calm - N/A Snow Light Snow
7:55 AM 17.6 °F - 15.8 °F 93% 29.93 in 4.0 mi Calm Calm - N/A Snow Light Snow
8:15 AM 17.6 °F - 15.8 °F 93% 29.93 in 2.0 mi Calm Calm - N/A Snow Light Snow
8:35 AM 17.6 °F - 15.8 °F 93% 29.94 in 1.0 mi Calm Calm - N/A Snow Light Snow
8:55 AM 17.6 °F - 15.8 °F 93% 29.94 in 1.2 mi Calm Calm - N/A Snow Light Snow
9:15 AM 19.4 °F - 15.8 °F 86% 29.95 in 2.0 mi Calm Calm - N/A Snow Light Snow
9:35 AM 19.4 °F - 15.8 °F 86% 29.95 in 2.0 mi Calm Calm - N/A Snow Light Snow
9:55 AM 19.4 °F - 15.8 °F 86% 29.95 in 1.8 mi Calm Calm - N/A Snow Light Snow
10:15 AM 19.4 °F - 17.6 °F 93% 29.95 in 2.5 mi Calm Calm - N/A Snow Light Snow
10:35 AM 21.2 °F - 17.6 °F 86% 29.95 in 5.0 mi Calm Calm - N/A Snow Light Snow
10:55 AM 21.2 °F - 17.6 °F 86% 29.94 in 4.0 mi Calm Calm - N/A Snow Light Snow
11:15 AM 21.2 °F - 17.6 °F 86% 29.94 in 5.0 mi Calm Calm - N/A Snow Light Snow
11:35 AM 23.0 °F - 17.6 °F 80% 29.93 in 5.0 mi Calm Calm - N/A Snow Light Snow
11:55 AM 23.0 °F 17.0 °F 17.6 °F 80% 29.93 in 10.0 mi WNW 4.6 mph - N/A   Overcast
12:15 PM 23.0 °F 15.8 °F 17.6 °F 80% 29.93 in 7.0 mi West 5.8 mph - N/A   Overcast
12:35 PM 23.0 °F 17.0 °F 17.6 °F 80% 29.93 in 10.0 mi West 4.6 mph - N/A   Overcast
12:55 PM 23.0 °F 17.0 °F 17.6 °F 80% 29.93 in 10.0 mi West 4.6 mph - N/A   Overcast
1:15 PM 23.0 °F 15.8 °F 17.6 °F 80% 29.93 in 10.0 mi West 5.8 mph - N/A   Overcast
1:35 PM 21.2 °F 11.7 °F 17.6 °F 86% 29.93 in 10.0 mi West 8.1 mph - N/A   Overcast
1:55 PM 21.2 °F 12.6 °F 17.6 °F 86% 29.93 in 10.0 mi West 6.9 mph - N/A   Overcast
2:15 PM 21.2 °F 12.6 °F 17.6 °F 86% 29.93 in 10.0 mi West 6.9 mph - N/A   Overcast
2:35 PM 21.2 °F 11.7 °F 15.8 °F 80% 29.94 in 10.0 mi West 8.1 mph - N/A   Overcast
2:55 PM 21.2 °F 13.6 °F 15.8 °F 80% 29.94 in 10.0 mi WSW 5.8 mph - N/A   Overcast
3:15 PM 21.2 °F 12.6 °F 15.8 °F 80% 29.95 in 10.0 mi West 6.9 mph - N/A   Overcast
3:35 PM 21.2 °F 13.6 °F 14.0 °F 74% 29.96 in 10.0 mi West 5.8 mph - N/A   Overcast
3:55 PM 21.2 °F 16.4 °F 15.8 °F 80% 29.97 in 10.0 mi West 3.5 mph - N/A   Overcast
4:15 PM 19.4 °F 9.5 °F 14.0 °F 80% 29.97 in 10.0 mi West 8.1 mph - N/A   Overcast
4:35 PM 19.4 °F 10.4 °F 14.0 °F 80% 29.97 in 10.0 mi West 6.9 mph - N/A   Overcast
4:55 PM 19.4 °F 14.3 °F 14.0 °F 80% 29.97 in 10.0 mi West 3.5 mph - N/A   Overcast
5:15 PM 19.4 °F - 14.0 °F 80% 29.98 in 10.0 mi Calm Calm - N/A   Overcast
5:35 PM 19.4 °F - 14.0 °F 80% 29.98 in 10.0 mi Calm Calm - N/A Snow Light Snow
5:55 PM 19.4 °F 14.3 °F 14.0 °F 80% 29.98 in 10.0 mi WSW 3.5 mph - N/A   Overcast
6:15 PM 19.4 °F 14.3 °F 14.0 °F 80% 29.98 in 10.0 mi WSW 3.5 mph - N/A   Overcast
6:35 PM 19.4 °F 12.8 °F 14.0 °F 80% 29.99 in 10.0 mi WSW 4.6 mph - N/A   Overcast
6:55 PM 19.4 °F - 14.0 °F 80% 30.00 in 10.0 mi Calm Calm - N/A   Overcast
7:15 PM 19.4 °F 11.5 °F 14.0 °F 80% 30.00 in 10.0 mi WSW 5.8 mph - N/A   Overcast
7:35 PM 19.4 °F - 14.0 °F 80% 30.00 in 10.0 mi Calm Calm - N/A Snow Light Snow
7:55 PM 19.4 °F - 14.0 °F 80% 30.01 in 10.0 mi Calm Calm - N/A Snow Light Snow
8:15 PM 17.6 °F 12.3 °F 14.0 °F 86% 30.01 in 10.0 mi West 3.5 mph - N/A   Overcast
8:35 PM 17.6 °F - 14.0 °F 86% 30.02 in 5.0 mi Calm Calm - N/A Snow Light Snow
8:55 PM 17.6 °F - 14.0 °F 86% 30.01 in 7.0 mi Calm Calm - N/A Snow Light Snow
9:15 PM 17.6 °F - 14.0 °F 86% 30.01 in 7.0 mi Calm Calm - N/A Snow Light Snow
9:35 PM 17.6 °F 8.2 °F 14.0 °F 86% 30.01 in 5.0 mi WSW 6.9 mph - N/A Snow Light Snow
9:55 PM 17.6 °F 12.3 °F 12.2 °F 79% 30.02 in 7.0 mi WSW 3.5 mph - N/A Snow Light Snow
10:15 PM 17.6 °F 9.3 °F 12.2 °F 79% 30.02 in 7.0 mi West 5.8 mph - N/A Snow Light Snow
10:35 PM 17.6 °F 6.4 °F 12.2 °F 79% 30.03 in 10.0 mi West 9.2 mph - N/A Snow Light Snow
10:55 PM 15.8 °F 6.1 °F 12.2 °F 86% 30.04 in 10.0 mi West 6.9 mph - N/A Snow Light Snow
11:15 PM 15.8 °F 5.1 °F 12.2 °F 86% 30.04 in 5.0 mi West 8.1 mph - N/A Snow Light Snow
11:35 PM 15.8 °F 5.1 °F 12.2 °F 86% 30.04 in 5.0 mi West 8.1 mph - N/A Snow Light Snow
11:55 PM 15.8 °F 6.1 °F 12.2 °F 86% 30.04 in 5.0 mi West 6.9 mph - N/A Snow Light Snow